Theta_e
333 339 348 349 348 348 348 349 350 351 350 348 347 346 344 343 341 340 340 340 340 339 340 341 341 340 340 340 338 337 337 337 336 338 337 339 341 340 337 337 336 328 335
336 341 346 349 348 347 347 348 349 349 349 348 346 344 343 341 341 340 339 339 339 339 340 340 342 340 340 339 337 336 336 336 335 336 334 336 339 336 336 335 337 332 335
338 341 342 346 347 347 347 348 348 348 348 347 345 343 342 340 339 338 338 338 338 338 340 340 341 340 338 336 336 336 336 334 334 333 332 325 328 334 335 334 333 334 334
338 339 339 343 347 346 346 347 347 348 348 347 345 343 341 339 338 338 338 337 337 338 339 339 339 339 337 336 335 335 334 333 332 330 323 324 327 334 334 334 334 333 333
334 337 338 342 346 346 347 346 347 347 347 346 344 342 340 339 338 338 337 337 337 338 338 338 338 338 337 335 334 334 333 332 330 325 322 322 324 331 333 332 332 332 332
333 335 339 342 344 345 346 346 346 345 347 346 345 343 340 339 337 337 337 336 337 337 338 337 337 337 336 335 333 332 332 331 326 321 321 326 325 333 333 332 331 331 331
331 334 336 339 341 342 345 345 345 345 344 345 345 344 342 339 338 337 336 335 335 335 336 335 335 335 335 334 332 332 331 329 322 321 322 324 326 333 333 333 332 331 331
332 333 334 333 336 339 340 341 342 342 342 342 342 343 343 340 338 337 336 335 334 333 333 333 334 334 334 333 332 331 329 327 323 322 323 324 331 332 333 332 332 332 332
331 331 330 330 331 332 334 336 338 339 340 340 340 341 341 340 339 338 336 335 334 332 332 332 333 333 332 332 331 329 328 326 320 322 325 324 331 333 333 332 332 332 332
329 329 327 328 328 328 329 330 333 335 335 335 334 332 331 333 334 334 332 335 333 332 331 331 331 331 330 331 330 328 326 325 320 322 323 326 332 332 331 331 331 331 331
327 326 326 326 325 326 327 326 328 329 329 328 327 324 324 326 328 328 329 332 333 333 331 330 329 328 326 325 328 326 322 319 319 321 322 330 332 330 330 333 333 333 333
323 326 326 325 324 324 328 324 324 325 323 322 322 321 322 323 324 326 323 327 329 329 331 330 327 326 322 318 318 321 317 317 318 319 321 329 330 331 331 331 332 333 332
322 325 326 325 325 325 324 323 322 321 321 320 320 321 321 321 320 321 320 319 318 317 317 318 318 317 317 316 316 316 316 315 314 315 319 326 328 329 330 329 329 331 332
320 322 326 325 326 324 323 322 321 320 319 318 319 321 319 318 317 317 318 317 316 315 314 314 314 315 315 316 316 316 316 315 314 315 315 321 326 328 329 328 327 331 331
320 321 324 324 325 325 323 322 321 320 320 319 320 321 320 318 317 317 318 318 316 317 316 314 313 313 313 314 314 314 315 315 315 316 315 316 324 327 328 327 330 330 330
323 322 324 324 325 325 325 323 323 321 322 320 320 321 320 319 318 317 317 318 317 317 316 314 312 312 313 312 313 314 314 315 315 315 315 315 322 327 328 328 327 328 330
325 325 324 325 326 325 324 324 323 323 323 322 322 322 321 319 318 317 316 315 316 316 315 313 312 312 312 313 312 313 314 314 314 314 315 315 318 321 325 325 325 327 326
324 324 326 327 326 325 323 324 324 324 324 323 323 323 323 322 321 318 316 315 315 313 312 312 313 313 312 312 312 312 312 313 313 313 315 314 315 316 319 324 323 322 321
323 324 325 326 325 325 324 324 324 324 324 324 321 321 322 323 323 320 318 316 316 313 312 314 314 314 313 313 313 312 313 312 313 314 314 313 313 313 312 317 315 317 318
323 323 325 326 325 326 326 324 322 322 323 323 324 323 322 323 324 322 319 318 317 314 313 313 314 314 314 314 316 315 311 311 311 312 312 312 311 310 309 307 306 308 313
322 322 322 323 323 326 326 324 323 323 324 323 324 324 323 323 323 322 321 319 318 316 315 315 314 315 313 315 312 309 308 310 310 311 311 310 310 308 307 306 303 303 304
322 322 323 322 323 324 327 327 325 324 322 324 324 323 324 323 323 323 322 321 320 318 315 315 315 315 314 310 308 305 303 306 309 310 310 313 311 310 307 304 300 298 298
322 322 322 323 323 324 325 325 319 319 317 318 320 323 323 324 325 324 323 323 321 320 319 317 316 315 312 309 310 309 303 304 308 309 309 310 311 309 305 301 298 296 296
322 323 323 322 322 322 324 323 322 322 320 322 323 323 323 323 324 324 325 324 323 321 319 318 316 318 314 310 310 314 313 312 308 306 308 311 309 307 303 299 295 294 294
321 322 322 322 321 322 322 323 322 321 322 322 320 320 322 322 323 323 324 324 323 323 321 319 314 315 316 315 314 312 311 311 311 309 306 307 306 306 303 299 296 293 293
317 320 321 321 320 321 321 322 321 321 321 317 319 320 320 321 322 322 323 323 323 323 321 320 319 317 316 316 317 314 313 310 310 310 309 306 304 303 302 299 296 293 292
Wind_Speed
3 4 7 10 11 11 12 13 16 15 16 18 18 19 18 19 18 16 16 17 17 17 18 19 18 18 16 19 19 19 19 20 21 19 20 18 21 22 22 19 13 12 20
6 5 8 9 11 11 12 12 13 14 16 18 18 18 18 18 17 17 17 16 16 17 17 18 19 18 18 18 18 18 19 20 18 17 15 15 17 21 21 19 18 17 19
5 5 6 8 10 10 10 11 12 14 16 17 18 17 17 17 16 17 16 15 15 16 16 17 18 18 18 18 18 19 19 19 17 16 14 5 9 19 18 18 17 19 17
7 6 6 8 9 11 10 10 12 13 15 16 17 16 16 16 16 16 15 15 15 14 17 16 16 16 17 17 17 18 19 18 16 15 7 7 9 17 17 17 17 17 17
6 6 6 9 9 11 10 11 12 12 13 14 15 16 16 16 15 15 15 14 15 15 15 16 15 16 18 17 16 17 17 16 15 10 7 6 5 13 16 16 15 15 14
6 6 7 10 11 10 10 13 14 13 13 12 14 14 16 16 16 14 14 14 13 14 14 15 16 16 15 15 16 16 16 15 11 6 6 7 5 15 15 15 14 13 13
6 5 5 10 10 10 9 12 15 15 12 11 11 11 15 15 15 14 14 13 13 13 13 14 15 14 13 15 15 15 14 13 6 6 6 5 6 14 14 13 13 12 12
7 5 4 7 9 10 10 9 12 13 11 9 8 9 14 16 15 14 13 12 12 12 12 12 14 15 14 14 14 13 11 9 6 6 5 4 10 12 13 12 12 11 11
6 6 4 4 6 8 8 11 11 11 8 7 7 9 11 12 12 12 11 10 10 10 11 11 12 13 13 11 11 10 9 8 5 4 4 3 10 11 11 10 9 8 8
7 5 5 4 3 5 6 9 9 11 9 7 8 9 10 10 10 9 8 8 8 8 9 9 10 11 11 8 9 9 8 8 4 4 3 3 8 8 8 5 4 5 5
4 5 5 4 3 4 5 6 7 9 8 9 7 9 7 5 5 6 6 7 6 6 7 8 8 8 8 8 7 7 5 2 3 2 2 4 4 4 4 8 8 6 7
10 7 5 5 4 3 2 3 4 4 3 4 4 5 4 5 4 4 5 6 5 5 5 5 4 5 5 3 3 3 2 2 2 1 1 4 4 4 5 6 7 7 8
10 8 9 8 7 6 5 3 2 2 3 3 5 4 4 4 3 3 2 2 1 3 2 3 3 2 1 2 2 2 3 2 0 0 1 3 4 5 5 5 5 7 8
10 11 11 9 9 6 3 3 4 3 3 3 3 4 3 2 3 2 2 3 3 2 2 0 0 1 1 1 2 3 3 2 1 0 2 3 5 5 5 4 4 7 9
11 10 10 10 9 8 7 4 4 4 4 4 4 4 4 4 4 4 3 3 2 2 1 1 1 1 2 3 2 0 0 1 2 1 1 2 2 2 2 1 5 8 8
12 12 11 12 11 10 9 8 6 4 4 4 4 5 6 4 3 3 3 2 2 2 2 2 3 3 2 1 2 3 3 2 1 2 1 1 0 1 2 4 6 6 9
12 12 13 12 11 11 10 9 6 6 5 5 5 6 6 6 5 5 4 4 4 3 4 3 3 2 2 1 3 3 3 3 2 3 3 2 1 3 6 4 5 6 8
11 13 12 12 12 11 9 8 6 6 6 5 5 5 7 6 6 5 4 4 4 4 4 3 3 2 3 3 2 3 3 3 2 3 4 4 3 2 5 6 6 5 5
13 12 13 13 13 12 8 6 6 7 6 5 4 4 6 7 7 6 5 4 5 4 4 3 3 3 2 3 4 3 3 3 3 3 5 5 5 4 3 8 10 8 7
12 11 13 12 13 13 8 5 3 3 4 4 6 7 7 7 7 6 4 5 5 4 4 3 5 3 3 4 3 3 3 4 3 4 5 4 4 5 4 5 4 4 6
12 13 14 15 13 11 8 8 6 8 6 4 5 6 7 6 6 6 4 4 4 6 6 6 3 5 3 1 2 3 2 3 4 3 3 4 5 4 5 4 3 2 2
16 17 16 17 15 14 10 9 5 5 4 4 5 6 7 7 7 7 8 8 8 6 6 5 5 2 2 3 2 2 3 4 1 3 4 5 7 6 6 5 5 4 1
17 17 17 17 15 14 14 7 3 3 1 4 5 7 8 10 10 10 10 9 8 7 7 7 7 6 4 3 5 4 1 4 0 1 4 4 6 6 4 4 4 4 4
18 16 16 15 15 14 15 12 14 11 11 9 8 7 7 11 12 12 12 11 10 7 7 8 7 8 5 6 2 6 4 2 4 2 1 4 5 5 6 5 5 5 5
17 15 16 14 14 15 16 16 12 13 10 6 4 7 10 9 12 11 12 11 10 8 9 9 7 8 7 6 6 3 4 3 2 3 3 2 1 4 3 4 5 4 4
12 12 12 14 15 14 16 17 17 17 13 7 8 8 7 7 7 11 10 10 10 10 10 9 10 9 9 9 8 6 6 4 5 6 6 3 4 3 4 4 5 4 3
Wind_Direction
198 204 122 113 107 104 107 109 110 109 109 103 98 95 92 91 91 92 90 89 89 90 93 92 88 80 82 82 81 77 75 70 65 65 68 70 67 71 68 61 57 62 66
146 161 127 117 114 112 114 118 117 116 114 112 106 102 99 97 95 94 91 91 93 95 97 96 85 76 83 89 83 80 73 66 64 54 56 54 69 65 63 62 55 61 64
129 118 110 112 118 116 117 124 125 119 117 114 109 106 106 102 99 95 95 94 93 99 101 93 82 78 87 85 79 79 74 76 73 61 51 34 63 72 68 65 65 64 61
124 114 114 118 116 122 119 122 120 116 114 115 112 111 107 104 97 94 95 96 98 101 98 91 78 79 92 85 84 85 80 76 69 59 42 39 62 71 69 68 68 63 59
110 113 125 124 115 117 128 129 119 117 112 118 116 115 110 104 99 98 95 98 101 103 101 93 80 86 93 90 91 91 84 77 67 55 46 51 51 74 74 68 62 61 61
118 118 132 127 125 112 111 128 114 108 109 112 123 119 121 117 110 104 100 97 96 100 101 90 81 87 97 92 90 90 89 81 70 59 54 53 68 77 74 72 68 64 58
124 126 128 124 118 110 118 123 116 109 102 110 115 119 128 123 115 110 104 103 104 107 107 99 92 93 99 96 98 97 91 83 70 61 55 55 73 76 74 71 68 63 59
133 124 119 123 119 118 121 118 100 105 105 106 106 110 127 127 122 116 110 105 101 102 105 101 95 92 100 101 102 101 92 81 69 64 51 35 78 75 73 70 66 63 60
106 111 108 104 116 105 108 107 111 108 113 106 86 97 109 119 118 116 113 111 106 103 101 98 92 88 91 106 110 105 97 90 80 63 53 30 75 70 68 62 56 54 50
119 119 123 116 104 113 120 125 121 120 120 118 109 100 93 92 97 104 93 104 108 101 95 85 76 76 74 94 121 115 110 95 88 71 45 39 71 65 58 29 48 30 17
128 137 131 131 129 132 130 135 126 132 140 132 117 107 93 103 107 107 115 113 117 107 97 85 74 58 56 50 122 111 86 89 93 71 39 30 55 63 49 7 34 21 33
171 171 157 148 141 121 103 125 127 127 126 128 123 118 111 116 109 107 110 122 115 103 101 91 65 43 46 74 81 97 114 121 96 100 348 32 29 27 24 18 13 50 45
182 174 177 164 161 172 160 158 148 154 149 148 156 143 128 118 133 124 130 96 79 67 35 31 26 54 89 122 132 131 159 146 132 326 312 352 360 8 16 21 11 32 49
181 188 177 181 173 165 151 168 164 162 171 160 172 154 140 138 152 167 176 182 176 177 178 115 321 256 251 248 161 156 152 163 182 279 315 341 360 5 15 24 37 53 66
186 191 186 175 179 171 168 176 178 179 172 188 179 193 171 180 187 177 199 197 211 172 202 224 264 293 301 302 308 172 205 202 178 196 215 289 16 28 71 75 71 60 65
189 189 182 188 184 177 181 182 183 184 190 185 195 194 193 183 187 189 189 226 249 225 224 215 219 223 241 261 285 280 259 257 222 200 188 257 67 358 95 55 51 58 87
196 185 185 192 188 185 189 186 183 191 190 191 197 196 191 186 192 195 194 205 217 220 217 214 246 257 242 230 259 272 261 254 233 204 179 181 160 88 86 106 91 83 85
188 191 188 187 192 190 192 190 189 189 193 202 201 196 198 197 188 189 199 212 207 202 198 202 199 228 253 242 258 258 262 252 233 200 175 173 156 111 70 67 118 95 96
192 185 188 189 189 192 189 190 195 189 191 193 184 198 205 199 196 193 200 209 201 202 202 199 220 203 222 248 247 247 246 260 249 197 185 173 160 140 119 94 86 69 104
194 184 190 190 192 189 186 182 186 189 190 191 205 206 199 211 202 197 204 207 189 193 216 211 215 219 229 243 244 254 263 255 241 215 192 161 156 148 135 113 92 82 93
193 190 192 191 190 181 184 189 202 214 212 207 211 210 202 205 201 195 202 212 196 202 210 204 194 206 251 264 312 330 307 275 249 217 168 154 166 157 140 133 119 90 100
199 204 199 200 192 194 193 198 196 186 209 214 203 205 206 199 195 196 197 208 204 206 207 199 188 200 230 182 189 94 311 323 339 206 179 183 178 171 171 153 133 120 84
209 203 204 206 199 196 192 178 128 121 155 183 206 211 208 204 209 208 207 213 211 205 211 207 201 191 212 226 217 168 225 232 340 155 215 199 185 178 158 145 129 136 122
210 209 205 199 197 195 189 190 200 206 211 217 209 204 204 203 212 213 216 214 215 207 208 206 198 210 179 219 200 231 228 164 212 270 229 207 184 185 160 161 160 154 136
206 199 202 195 192 193 192 197 200 213 218 209 195 191 202 208 216 214 215 216 217 212 215 206 191 203 204 216 213 181 218 215 216 208 239 196 172 166 168 152 164 158 156
204 198 190 187 198 192 194 200 200 210 209 197 201 207 207 211 214 218 215 216 218 218 213 211 213 210 212 222 226 220 212 187 204 210 229 196 204 181 154 158 173 167 177